CW1020 Weather Reports


Display with metric or nautical units.
time (UTC)temp
F
wind
direction
speed
MPH
gust
MPH
rain 1hr
in
rain 24hr
in
rain mn
in
humidity
%
barometer
mb
20211024215957 61 321 10.0 16.0 0.00 0.00 0.00 54 1013.7
20211024215447 61 338 9.0 14.0 0.00 0.00 0.00 53 1013.7
20211024214945 61 305 10.0 15.0 0.00 0.00 0.00 53 1013.7
20211024214501 61 332 7.0 15.0 0.00 0.00 0.00 53 1013.7
20211024213958 61 326 10.0 15.0 0.00 0.00 0.00 53 1013.7
20211024213453 61 295 8.0 15.0 0.00 0.00 0.00 53 1013.7
20211024212948 61 313 8.0 16.0 0.00 0.00 0.00 53 1013.6
20211024212501 62 11 9.0 18.0 0.00 0.00 0.00 52 1013.7
20211024211956 62 328 11.0 18.0 0.00 0.00 0.00 54 1013.7
20211024211445 62 317 10.0 16.0 0.00 0.00 0.00 54 1013.8
20211024211001 62 346 10.0 16.0 0.00 0.00 0.00 53 1013.8
20211024210456 62 330 12.0 14.0 0.00 0.00 0.00 54 1013.8
20211024205952 62 314 10.0 14.0 0.00 0.00 0.00 52 1013.7
20211024205501 62 299 10.0 14.0 0.00 0.00 0.00 52 1013.8
20211024204955 62 298 6.0 15.0 0.00 0.00 0.00 52 1013.8
20211024204450 62 339 9.0 15.0 0.00 0.00 0.00 52 1013.7
20211024203943 62 342 10.0 14.0 0.00 0.00 0.00 51 1013.7
20211024203455 62 331 7.0 18.0 0.00 0.00 0.00 51 1013.9
20211024202949 62 320 7.0 18.0 0.00 0.00 0.00 52 1013.9
20211024202502 62 329 4.0 19.0 0.00 0.00 0.00 51 1013.9
20211024201957 62 295 9.0 19.0 0.00 0.00 0.00 51 1014.1
20211024201448 62 360 8.0 12.0 0.00 0.00 0.00 50 1014.2
20211024200943 63 325 7.0 15.0 0.00 0.00 0.00 49 1014.3
20211024200457 63 265 10.0 15.0 0.00 0.00 0.00 49 1014.3
20211024195953 63 269 10.0 21.0 0.00 0.00 0.00 49 1014.3
20211024195501 63 306 13.0 21.0 0.00 0.00 0.00 49 1014.3
20211024194956 63 311 10.0 18.0 0.00 0.00 0.00 48 1014.3
20211024194450 63 286 7.0 24.0 0.00 0.00 0.00 47 1014.3
20211024193946 63 249 13.0 24.0 0.00 0.00 0.00 47 1014.5
20211024193457 64 296 8.0 19.0 0.00 0.00 0.00 45 1014.5
20211024192947 64 286 15.0 19.0 0.00 0.00 0.00 45 1014.5
20211024192501 64 322 13.0 19.0 0.00 0.00 0.00 46 1014.3
20211024191956 64 286 8.0 20.0 0.00 0.00 0.00 44 1014.5
20211024191446 64 300 14.0 20.0 0.00 0.00 0.00 44 1014.4
20211024191001 64 325 11.0 20.0 0.00 0.00 0.00 44 1014.6
20211024190454 64 297 13.0 20.0 0.00 0.00 0.00 44 1014.6
20211024185954 64 268 12.0 21.0 0.00 0.00 0.00 45 1014.6
20211024185445 64 306 16.0 22.0 0.00 0.00 0.00 45 1014.6
20211024185001 64 296 9.0 26.0 0.00 0.00 0.00 46 1014.8
20211024184457 64 292 12.0 26.0 0.00 0.00 0.00 47 1014.7
20211024183952 64 253 12.0 25.0 0.00 0.00 0.00 46 1014.7
20211024183500 63 267 12.0 25.0 0.00 0.00 0.00 47 1014.6
20211024182955 63 325 10.0 13.0 0.00 0.00 0.00 48 1014.5
20211024182449 63 285 8.0 17.0 0.00 0.00 0.00 49 1014.5
20211024181944 62 276 9.0 17.0 0.00 0.00 0.00 49 1014.5
20211024181457 62 263 10.0 15.0 0.00 0.00 0.00 50 1014.6
20211024180953 62 265 9.0 14.0 0.00 0.00 0.00 50 1014.7
20211024180449 62 302 9.0 14.0 0.00 0.00 0.00 49 1014.8
20211024175944 62 286 9.0 14.0 0.00 0.00 0.00 51 1014.8
20211024175456 61 265 8.0 14.0 0.00 0.00 0.00 52 1014.8
20211024174950 60 201 2.0 8.0 0.00 0.00 0.00 53 1014.8
20211024174444 59 230 3.0 8.0 0.00 0.00 0.00 54 1014.8
20211024173954 59 320 4.0 8.0 0.00 0.00 0.00 54 1014.8
20211024173452 59 351 2.0 11.0 0.00 0.00 0.00 55 1014.8
20211024172949 58 338 3.0 11.0 0.00 0.00 0.00 56 1014.8
20211024172504 58 336 2.0 10.0 0.00 0.00 0.00 56 1014.8
20211024171954 58 342 4.0 11.0 0.00 0.00 0.00 56 1014.8
20211024171450 57 333 5.0 11.0 0.00 0.00 0.00 57 1014.9
20211024170945 57 323 3.0 8.0 0.00 0.00 0.00 57 1014.9
20211024170458 57 274 3.0 9.0 0.00 0.00 0.00 57 1014.8
20211024165945 56 9 5.0 9.0 0.00 0.00 0.00 58 1014.8
20211024165459 56 348 4.0 9.0 0.00 0.00 0.00 59 1014.9
20211024164954 56 332 5.0 9.0 0.00 0.00 0.00 59 1014.9
20211024164450 55 335 4.0 9.0 0.00 0.00 0.00 59 1014.8
20211024164000 55 325 3.0 10.0 0.00 0.00 0.00 60 1014.9
20211024163454 55 321 5.0 13.0 0.00 0.00 0.00 61 1014.9
20211024162946 55 293 8.0 20.0 0.00 0.00 0.00 62 1014.9
20211024162500 54 271 11.0 20.0 0.00 0.00 0.00 63 1014.8
20211024161951 54 267 13.0 21.0 0.00 0.00 0.00 64 1014.8
20211024161444 53 275 12.0 23.0 0.00 0.00 0.00 65 1014.8
20211024160958 52 254 11.0 27.0 0.00 0.00 0.00 67 1014.9
20211024160453 52 259 16.0 27.0 0.00 0.00 0.00 68 1014.8
20211024160004 51 246 14.0 23.0 0.00 0.00 0.00 69 1014.7
20211024155456 51 281 10.0 20.0 0.00 0.00 0.00 70 1014.6
20211024154950 51 268 12.0 20.0 0.00 0.00 0.00 71 1014.6
20211024154446 50 245 7.0 14.0 0.00 0.00 0.00 72 1014.5
20211024153957 50 270 11.0 14.0 0.00 0.00 0.00 72 1014.5
20211024153451 50 216 7.0 13.0 0.00 0.00 0.00 72 1014.4
20211024153005 50 236 6.0 18.0 0.00 0.00 0.00 72 1014.5
20211024152459 50 271 13.0 18.0 0.00 0.00 0.00 72 1014.3
20211024151946 50 257 9.0 15.0 0.00 0.00 0.00 72 1014.3
20211024151501 50 248 5.0 9.0 0.00 0.00 0.00 73 1014.3
20211024150956 50 189 1.0 6.0 0.00 0.00 0.00 73 1014.3
20211024150449 50 157 3.0 7.0 0.00 0.00 0.00 72 1014.3
20211024145956 49 337 0.0 3.0 0.00 0.00 0.00 73 1014.3
20211024145450 49 346 0.0 5.0 0.00 0.00 0.00 74 1014.4
20211024144944 48 333 2.0 5.0 0.00 0.00 0.00 75 1014.3
20211024144454 48 332 1.0 9.0 0.00 0.00 0.00 75 1014.3
20211024143949 48 321 5.0 9.0 0.00 0.00 0.00 75 1014.3
20211024143446 48 320 2.0 9.0 0.00 0.00 0.00 75 1014.1
20211024142959 48 333 4.0 6.0 0.00 0.00 0.00 76 1014.1
20211024142451 47 325 1.0 3.0 0.00 0.00 0.00 77 1014.0
20211024141947 47 5 2.0 8.0 0.00 0.00 0.00 77 1014.0
20211024141445 46 22 2.0 11.0 0.00 0.00 0.00 79 1014.0
20211024141002 45 265 6.0 11.0 0.00 0.00 0.00 79 1014.0
20211024140456 45 273 2.0 13.0 0.00 0.00 0.00 79 1014.0
20211024135948 45 298 6.0 13.0 0.00 0.00 0.00 79 1014.0
20211024135445 45 316 0.0 13.0 0.00 0.00 0.00 78 1013.9
20211024135001 45 307 3.0 13.0 0.00 0.00 0.00 79 1014.0
20211024134455 45 208 4.0 15.0 0.00 0.00 0.00 79 1014.0
20211024133950 45 266 10.0 15.0 0.00 0.00 0.00 79 1014.0
20211024133504 45 129 2.0 7.0 0.00 0.00 0.00 80 1014.0
20211024132959 45 222 4.0 9.0 0.00 0.00 0.00 79 1014.0
20211024132448 45 93 5.0 9.0 0.00 0.00 0.00 79 1014.0
20211024132002 45 96 3.0 6.0 0.00 0.00 0.00 80 1013.9
20211024131451 44 178 1.0 4.0 0.00 0.00 0.00 80 1014.0
20211024130946 44 106 1.0 8.0 0.00 0.00 0.00 80 1014.0
20211024130457 44 121 3.0 8.0 0.00 0.00 0.00 78 1013.9
20211024125952 45 156 2.0 5.0 0.00 0.00 0.00 80 1013.9
20211024125446 44 169 2.0 3.0 0.00 0.00 0.00 79 1013.9
20211024125002 44 170 0.0 0.0 0.00 0.00 0.00 79 1013.8
20211024124453 45 170 0.0 0.0 0.00 0.00 0.00 78 1013.8
20211024123946 45 161 0.0 1.0 0.00 0.00 0.00 77 1013.8
20211024123501 45 161 0.0 1.0 0.00 0.00 0.00 77 1013.7
20211024122956 46 161 0.0 3.0 0.00 0.00 0.00 77 1013.7
20211024122446 46 161 2.0 3.0 0.00 0.00 0.00 76 1013.5
20211024122002 46 154 0.0 2.0 0.00 0.00 0.00 77 1013.4
20211024121457 46 154 1.0 3.0 0.00 0.00 0.00 77 1013.4
20211024120951 46 154 2.0 3.0 0.00 0.00 0.00 77 1013.4
20211024120501 46 154 1.0 3.0 0.00 0.00 0.00 77 1013.4
20211024115955 46 154 1.0 5.0 0.00 0.00 0.00 77 1013.4
20211024115448 46 154 2.0 5.0 0.00 0.00 0.00 77 1013.4
20211024115003 45 160 3.0 5.0 0.00 0.00 0.00 78 1013.4
20211024114453 44 128 2.0 3.0 0.00 0.00 0.00 80 1013.4
20211024113949 44 243 0.0 0.0 0.00 0.00 0.00 80 1013.5
20211024113502 43 244 0.0 0.0 0.00 0.00 0.00 80 1013.4
20211024112958 43 245 0.0 0.0 0.00 0.00 0.00 80 1013.3
20211024112446 43 244 0.0 0.0 0.00 0.00 0.00 80 1013.2
20211024112001 43 244 0.0 0.0 0.00 0.00 0.00 81 1013.2
20211024111455 42 244 0.0 0.0 0.00 0.00 0.00 81 1013.2
20211024110950 42 245 0.0 0.0 0.00 0.00 0.00 80 1013.2
20211024110501 43 245 0.0 0.0 0.00 0.00 0.00 80 1013.1
20211024105953 43 245 0.0 0.0 0.00 0.00 0.00 78 1013.0
20211024105449 44 245 0.0 0.0 0.00 0.00 0.00 77 1013.2
20211024104951 44 245 0.0 0.0 0.00 0.00 0.00 76 1013.2
20211024104501 44 245 0.0 0.0 0.00 0.00 0.00 76 1013.2
20211024103956 44 245 0.0 0.0 0.00 0.00 0.00 77 1013.2
20211024103452 44 202 0.0 0.0 0.00 0.00 0.00 77 1013.3
20211024102948 44 202 0.0 0.0 0.00 0.00 0.00 77 1013.4
20211024102500 44 202 0.0 0.0 0.00 0.00 0.00 77 1013.4
20211024101949 43 202 0.0 0.0 0.00 0.00 0.00 77 1013.5
20211024101504 43 202 0.0 0.0 0.00 0.00 0.00 77 1013.6
20211024100954 44 202 0.0 0.0 0.00 0.00 0.00 77 1013.6
20211024100452 44 202 0.0 1.0 0.00 0.00 0.00 75 1013.6
20211024095946 45 202 0.0 1.0 0.00 0.00 0.00 75 1013.6
20211024095501 45 197 0.0 2.0 0.00 0.00 0.00 74 1013.6
20211024094949 45 197 1.0 2.0 0.00 0.00 0.00 76 1013.8
20211024094446 44 197 0.0 3.0 0.00 0.00 0.00 76 1014.0
20211024094004 44 197 1.0 4.0 0.00 0.00 0.00 77 1014.0
20211024093459 44 197 1.0 4.0 0.00 0.00 0.00 78 1014.2
20211024092949 44 207 0.0 0.0 0.00 0.00 0.00 78 1014.3
20211024092505 43 207 0.0 0.0 0.00 0.00 0.00 79 1014.2
20211024091958 43 197 0.0 0.0 0.00 0.00 0.00 79 1014.2
20211024091453 44 197 0.0 0.0 0.00 0.00 0.00 79 1014.2
20211024091002 44 196 0.0 0.0 0.00 0.00 0.00 79 1014.1
20211024090455 45 196 0.0 0.0 0.00 0.00 0.00 79 1014.2
20211024085949 45 196 0.0 0.0 0.00 0.00 0.00 78 1014.1
20211024085504 45 196 0.0 0.0 0.00 0.00 0.00 78 1014.2
20211024084955 46 196 0.0 0.0 0.00 0.00 0.00 79 1014.3
20211024084449 46 196 0.0 3.0 0.00 0.00 0.00 79 1014.4
20211024084005 46 196 0.0 3.0 0.00 0.00 0.00 80 1014.4
20211024083456 45 213 0.0 0.0 0.00 0.00 0.00 81 1014.4
20211024083005 45 263 0.0 0.0 0.00 0.00 0.00 82 1014.5
20211024082456 45 277 0.0 0.0 0.00 0.00 0.00 83 1014.5
20211024081951 44 278 0.0 0.0 0.00 0.00 0.00 83 1014.6
20211024081504 44 277 0.0 0.0 0.00 0.00 0.00 84 1014.5
20211024080953 44 279 0.0 0.0 0.00 0.00 0.00 84 1014.4
20211024080446 44 278 0.0 0.0 0.00 0.00 0.00 85 1014.4
20211024075956 44 280 0.0 0.0 0.00 0.00 0.00 85 1014.3
20211024075450 44 281 0.0 0.0 0.00 0.00 0.00 85 1014.3
20211024074946 44 281 0.0 0.0 0.00 0.00 0.00 85 1014.4
20211024074500 44 281 0.0 0.0 0.00 0.00 0.00 85 1014.5
20211024073951 44 301 0.0 0.0 0.00 0.00 0.00 84 1014.5
20211024073446 45 301 0.0 0.0 0.00 0.00 0.00 85 1014.5
20211024073001 44 309 0.0 0.0 0.00 0.00 0.00 84 1014.5
20211024072455 45 310 0.0 0.0 0.00 0.00 0.00 84 1014.5
20211024071946 45 310 0.0 0.0 0.00 0.00 0.00 83 1014.6
20211024071459 45 311 0.0 0.0 0.00 0.00 0.00 84 1014.6
20211024070953 45 318 0.0 3.0 0.00 0.00 0.00 84 1014.8
20211024070448 45 319 1.0 3.0 0.00 0.00 0.00 85 1014.9
20211024065958 44 268 0.0 0.0 0.00 0.00 0.00 84 1014.8
20211024065501 45 268 0.0 3.0 0.00 0.00 0.00 84 1014.9
20211024064956 44 268 0.0 3.0 0.00 0.00 0.00 84 1015.0
20211024064452 45 278 0.0 0.0 0.00 0.00 0.00 84 1015.1
20211024064004 45 278 0.0 0.0 0.00 0.00 0.00 83 1015.1
20211024063454 45 308 0.0 0.0 0.00 0.00 0.00 84 1015.3
20211024062947 45 308 0.0 1.0 0.00 0.00 0.00 84 1015.3
20211024062502 45 309 0.0 1.0 0.00 0.00 0.00 83 1015.4
20211024061953 45 305 0.0 1.0 0.00 0.00 0.00 82 1015.5
20211024061506 46 193 0.0 4.0 0.00 0.00 0.00 82 1015.5
20211024060959 46 182 0.0 0.0 0.00 0.00 0.00 82 1015.6
20211024060452 46 182 0.0 0.0 0.00 0.00 0.00 81 1015.5
20211024060002 47 182 0.0 0.0 0.00 0.00 0.00 81 1015.7
20211024055454 47 182 0.0 0.0 0.00 0.00 0.00 81 1015.6
20211024054949 47 182 0.0 0.0 0.00 0.00 0.00 81 1015.7
20211024054459 47 109 0.0 0.0 0.00 0.00 0.00 81 1015.6
20211024053954 47 107 0.0 0.0 0.00 0.00 0.00 81 1015.7
20211024053448 47 107 0.0 0.0 0.00 0.00 0.00 80 1015.8
20211024053002 47 107 0.0 0.0 0.00 0.00 0.00 80 1015.8
20211024052452 47 106 0.0 0.0 0.00 0.00 0.00 80 1015.9
20211024051947 47 106 0.0 0.0 0.00 0.00 0.00 80 1015.8
20211024051500 47 106 0.0 0.0 0.00 0.00 0.00 80 1015.7
20211024050955 47 106 0.0 0.0 0.00 0.00 0.00 80 1015.6
20211024050502 48 107 0.0 0.0 0.00 0.00 0.00 80 1015.5
20211024050002 48 106 0.0 0.0 0.00 0.00 0.00 80 1015.5
20211024045459 48 107 0.0 0.0 0.00 0.00 0.00 80 1015.4
20211024044951 48 107 0.0 0.0 0.00 0.00 0.00 80 1015.4
20211024044504 48 134 0.0 1.0 0.00 0.00 0.00 80 1015.4
20211024043958 48 134 0.0 1.0 0.00 0.00 0.00 80 1015.4
20211024043450 48 199 0.0 1.0 0.00 0.00 0.00 80 1015.2
20211024043008 48 199 0.0 2.0 0.00 0.00 0.00 80 1015.2
20211024042458 48 199 0.0 4.0 0.00 0.00 0.00 81 1015.1
20211024041955 48 200 1.0 4.0 0.00 0.00 0.00 81 1015.0
20211024041450 48 173 1.0 4.0 0.00 0.00 0.00 81 1015.1
20211024040950 48 170 2.0 5.0 0.00 0.00 0.00 81 1015.1
20211024040504 48 180 2.0 5.0 0.00 0.00 0.00 80 1015.1
20211024040001 48 160 4.0 5.0 0.00 0.00 0.00 80 1015.0
20211024035459 48 240 2.0 3.0 0.00 0.00 0.00 81 1015.1
20211024034956 48 241 0.0 5.0 0.00 0.00 0.00 81 1015.0
20211024034505 48 241 1.0 7.0 0.00 0.00 0.00 81 1014.8
20211024034002 48 254 4.0 7.0 0.00 0.00 0.00 80 1014.8
20211024033502 48 182 3.0 9.0 0.00 0.00 0.00 80 1014.5
20211024032959 48 177 3.0 9.0 0.00 0.00 0.00 80 1014.4
20211024032504 48 157 4.0 8.0 0.00 0.00 0.00 80 1014.2
20211024031959 48 84 3.0 8.0 0.00 0.00 0.00 80 1014.6
20211024031453 48 34 5.0 8.0 0.00 0.00 0.00 80 1014.4
20211024030948 48 131 0.0 6.0 0.00 0.00 0.00 80 1014.6
20211024030457 48 112 3.0 6.0 0.00 0.00 0.00 79 1014.4
20211024025949 48 184 3.0 6.0 0.00 0.00 0.00 79 1014.2
20211024025503 48 163 2.0 6.0 0.00 0.00 0.00 79 1014.2
20211024024956 48 76 4.0 5.0 0.00 0.00 0.00 79 1014.3
20211024024504 49 238 2.0 8.0 0.00 0.00 0.00 79 1014.3
20211024023957 49 240 3.0 8.0 0.00 0.00 0.00 79 1014.2
20211024023450 49 246 4.0 7.0 0.00 0.00 0.00 79 1014.2
20211024023003 49 240 4.0 10.0 0.00 0.00 0.00 78 1014.2
20211024022453 49 228 5.0 11.0 0.00 0.00 0.00 78 1014.3
20211024021947 49 257 6.0 12.0 0.00 0.00 0.00 78 1014.2
20211024021503 49 250 7.0 15.0 0.00 0.00 0.00 78 1014.1
20211024020958 49 284 8.0 15.0 0.00 0.00 0.00 77 1014.2
20211024020448 49 282 4.0 13.0 0.00 0.00 0.00 77 1014.3
20211024020001 49 224 8.0 17.0 0.00 0.00 0.00 77 1014.1
20211024015456 49 250 9.0 17.0 0.00 0.00 0.00 77 1014.2
20211024015002 49 270 10.0 14.0 0.00 0.00 0.00 77 1014.2
20211024014454 49 252 6.0 14.0 0.00 0.00 0.00 77 1014.2
20211024013947 49 271 10.0 14.0 0.00 0.00 0.00 76 1014.0
20211024013503 50 294 8.0 15.0 0.00 0.00 0.00 76 1014.2
20211024012954 50 300 12.0 17.0 0.00 0.00 0.00 76 1014.1
20211024012507 50 256 8.0 19.0 0.00 0.00 0.00 75 1014.2
20211024012002 50 292 11.0 19.0 0.00 0.00 0.00 75 1014.3
20211024011457 50 269 10.0 14.0 0.00 0.00 0.00 75 1014.2
20211024010949 50 279 6.0 14.0 0.00 0.00 0.00 75 1014.3
20211024010505 50 302 7.0 18.0 0.00 0.00 0.00 75 1014.0
20211024010005 50 282 9.0 18.0 0.00 0.00 0.00 76 1014.1
20211024005502 51 285 9.0 18.0 0.00 0.00 0.00 74 1014.1
20211024004952 51 289 13.0 17.0 0.00 0.00 0.00 74 1014.3
20211024004506 51 292 8.0 15.0 0.00 0.00 0.00 74 1014.3
20211024004003 51 279 10.0 18.0 0.00 0.00 0.00 74 1014.2
20211024003501 50 288 12.0 22.0 0.00 0.00 0.00 75 1014.1
20211024002955 50 295 13.0 23.0 0.00 0.00 0.00 75 1014.0
20211024002450 51 281 15.0 23.0 0.00 0.00 0.00 74 1014.0
20211024001948 51 288 9.0 23.0 0.00 0.00 0.00 75 1014.1
20211024001506 50 275 16.0 22.0 0.00 0.00 0.00 75 1013.9
20211024001002 50 311 11.0 19.0 0.00 0.00 0.00 75 1014.0
20211024000502 51 300 11.0 19.0 0.00 0.00 0.00 75 1014.2
20211023235958 51 275 12.0 17.0 0.00 0.00 0.00 75 1013.9
20211023235450 51 285 10.0 15.0 0.00 0.00 0.00 75 1013.8
20211023235002 51 298 8.0 14.0 0.00 0.00 0.00 75 1013.9
20211023234457 51 292 9.0 15.0 0.00 0.00 0.00 75 1013.9
20211023233955 51 288 10.0 20.0 0.00 0.00 0.00 75 1014.2
20211023233449 51 307 12.0 21.0 0.00 0.00 0.00 75 1014.2
20211023232958 51 306 13.0 23.0 0.00 0.00 0.00 75 1014.2
20211023232450 51 303 16.0 23.0 0.00 0.00 0.00 76 1014.2
20211023232006 51 290 11.0 18.0 0.00 0.00 0.00 76 1014.1
20211023231459 51 289 11.0 16.0 0.00 0.00 0.00 77 1014.0
20211023230949 51 334 7.0 14.0 0.00 0.00 0.00 78 1013.9
20211023230504 50 281 7.0 16.0 0.00 0.00 0.00 78 1013.9
20211023230000 50 296 11.0 16.0 0.00 0.00 0.00 79 1013.8
20211023225453 50 286 5.0 15.0 0.00 0.00 0.00 80 1013.7
20211023225004 50 328 9.0 13.0 0.00 0.00 0.00 80 1014.0
20211023224500 50 306 7.0 16.0 0.00 0.00 0.00 79 1014.1
20211023223956 51 330 9.0 16.0 0.00 0.00 0.00 79 1014.2
20211023223451 51 286 8.0 12.0 0.00 0.00 0.00 79 1014.3
20211023223003 51 301 7.0 22.0 0.00 0.00 0.00 79 1014.3
20211023222454 51 275 13.0 22.0 0.00 0.00 0.00 79 1014.2
20211023222007 51 272 9.0 16.0 0.00 0.00 0.00 78 1014.1
20211023221502 51 310 10.0 17.0 0.00 0.00 0.00 77 1014.1
20211023220954 52 313 9.0 18.0 0.00 0.00 0.00 78 1014.1
20211023220449 51 320 12.0 18.0 0.00 0.00 0.00 78 1014.0